Theta_e
324 317 314 318 315 313 308 305 296 296 289 287 285 284 287 294 291 290 289 292 289 291 294 294 293 293 289 288 288 288 289 287 286 280 282 289 299 299 297 298 299 300 299 299 299 298 303 312 310 313 314 316 317 319 320 319 320 320 320 319 319 319 319 319 320 321 322 322 324 327 327 328 329 329 330 329 329 328 329 328 328 329 329 329 329 330 330 331 332 334 336 337 338 337 338 338 338
319 314 312 317 316 310 305 300 292 291 286 283 286 285 288 288 289 288 288 289 290 292 291 293 294 293 293 292 289 291 291 292 292 292 295 299 298 298 299 301 297 298 299 299 298 298 299 300 310 312 314 315 317 318 318 319 319 319 319 319 318 319 319 319 320 320 321 322 324 326 328 328 328 328 329 329 329 328 328 328 328 328 329 328 328 328 329 330 331 332 335 336 337 335 336 337 337
321 313 311 313 309 308 303 300 294 285 285 283 282 285 288 287 287 288 288 290 292 292 292 294 294 296 293 293 292 289 283 293 293 295 295 299 294 296 298 297 299 298 300 299 298 297 299 305 313 312 314 315 317 318 318 318 319 318 318 318 319 318 318 319 319 320 321 323 324 327 327 328 328 328 328 328 328 328 327 327 327 327 327 327 328 327 327 327 328 330 332 333 334 336 337 337 336
315 314 311 307 304 303 296 293 287 286 285 280 282 284 287 287 287 288 290 290 290 292 293 295 293 296 292 289 290 292 291 292 293 293 293 293 292 294 296 298 305 299 300 301 300 299 298 311 311 312 313 315 317 317 318 318 318 318 318 318 318 318 318 318 318 319 321 323 324 326 327 327 327 327 327 327 327 327 327 327 326 327 326 327 328 328 326 326 326 328 331 333 333 335 335 336 337
311 314 311 306 301 299 296 290 286 282 283 282 280 284 288 287 288 288 289 290 290 291 291 293 292 295 294 293 291 288 286 292 293 294 294 295 297 296 297 302 296 297 297 298 299 297 299 310 310 311 313 315 316 317 317 318 318 318 318 318 318 318 317 317 318 319 320 322 324 326 326 326 326 326 326 326 326 326 326 326 326 325 326 326 327 327 327 326 325 326 329 332 333 334 335 335 336
310 309 313 308 301 303 293 286 284 283 285 283 283 285 286 288 288 288 289 289 291 289 290 290 291 291 291 292 292 290 291 290 293 295 294 295 299 299 299 305 296 296 297 297 296 296 297 317 310 311 313 315 316 316 317 318 318 318 318 318 318 317 317 318 319 319 320 321 322 323 325 325 325 325 326 326 326 325 325 324 324 325 325 324 324 325 326 326 324 326 327 330 332 333 333 333 335
309 305 305 301 302 296 289 283 283 282 286 286 284 286 287 287 288 288 289 290 291 290 291 292 291 291 289 291 294 294 294 297 294 296 295 298 299 300 299 297 297 296 297 297 297 297 299 312 309 311 313 314 315 315 316 316 316 317 317 317 317 317 318 319 320 319 319 319 321 322 324 324 324 325 325 325 324 323 323 323 323 323 323 322 322 323 325 324 324 324 326 329 330 331 332 332 332
311 305 303 296 293 289 284 283 284 281 286 287 287 287 287 288 287 288 288 288 288 289 291 290 291 290 288 293 289 292 295 295 296 297 296 298 300 299 300 297 299 297 297 297 296 302 314 309 309 311 312 313 313 314 315 315 316 316 316 317 317 318 319 319 318 318 318 319 319 320 322 323 324 324 324 322 322 322 322 323 323 322 322 321 321 322 323 324 323 324 325 327 329 330 330 331 331
306 304 300 295 287 285 281 282 284 284 287 287 289 289 296 288 288 287 286 286 288 288 291 291 289 288 287 289 288 291 293 296 296 301 297 298 299 300 300 298 298 297 298 297 297 300 299 313 310 310 311 311 312 313 313 314 314 315 316 316 317 318 317 316 316 316 316 316 317 318 320 323 324 324 322 322 322 322 322 322 322 322 321 320 320 320 321 322 323 323 324 326 328 329 329 330 330
302 301 294 291 286 283 280 282 280 285 285 287 285 288 287 287 287 287 285 288 287 288 289 290 289 288 288 288 289 293 293 296 295 297 298 298 300 301 302 300 300 298 298 298 298 299 299 315 311 310 310 310 311 312 312 313 313 314 315 315 316 317 315 315 314 315 314 315 315 316 319 322 323 322 321 320 320 320 320 319 319 321 321 321 320 320 320 320 321 322 323 324 326 327 327 329 329
295 296 297 292 280 281 279 281 280 284 286 287 286 288 286 287 287 287 286 288 288 288 290 290 290 288 288 288 289 291 294 295 295 295 297 298 300 300 299 299 300 299 297 299 299 299 302 304 313 311 310 310 310 311 311 312 313 313 314 314 315 314 314 313 313 313 312 313 314 315 318 320 320 320 320 319 318 318 318 318 317 319 319 319 320 320 320 321 321 321 322 323 325 326 326 327 328
294 293 293 283 284 281 278 282 284 283 285 285 286 288 287 288 288 287 287 288 288 288 288 290 289 289 288 288 289 293 296 295 294 296 296 298 297 299 299 297 300 300 299 299 301 301 299 299 304 311 312 311 310 310 310 311 312 312 313 313 313 313 312 312 312 311 311 312 312 312 314 316 318 319 318 317 316 316 316 317 318 318 318 318 318 318 319 319 320 321 321 323 324 325 325 326 327
295 292 287 285 286 281 282 282 282 286 283 283 285 288 287 288 288 287 285 285 287 288 288 290 292 292 287 288 289 292 294 294 295 295 297 296 296 295 299 299 301 301 301 303 300 300 299 299 299 303 307 313 313 311 311 311 311 311 312 312 311 311 311 310 310 310 310 310 310 310 311 313 315 316 317 317 316 316 316 317 318 318 319 318 318 318 318 319 319 320 321 321 323 324 325 326 327
295 293 288 287 282 282 280 281 281 281 279 282 285 288 288 288 286 288 286 287 287 287 290 290 292 291 288 289 288 290 290 293 295 296 296 298 298 299 300 300 301 300 301 301 299 299 299 300 301 299 302 301 301 308 312 311 311 311 311 311 310 310 309 309 309 308 308 308 308 308 310 313 314 315 315 316 315 316 317 317 317 318 318 317 317 317 317 318 319 319 320 320 322 323 324 325 326
298 293 286 283 283 282 282 281 283 279 280 284 287 287 289 292 289 287 289 286 287 289 294 293 292 290 283 288 284 289 292 294 295 297 298 300 300 300 299 299 299 300 299 301 299 300 300 299 299 298 302 299 298 298 297 300 311 312 312 311 310 310 309 309 308 308 308 308 308 308 309 311 312 313 314 315 314 315 317 317 317 318 317 317 316 315 316 317 318 318 319 320 321 322 323 324 325
297 292 286 287 283 282 284 284 281 281 282 285 288 286 287 289 289 290 289 290 290 292 293 291 294 290 288 288 288 291 293 294 295 298 298 299 298 298 298 298 298 297 299 300 299 300 299 298 297 297 297 297 298 298 298 297 304 312 312 312 311 310 309 309 308 307 307 307 306 306 308 308 309 309 313 310 312 314 315 315 317 317 318 317 317 315 314 315 316 317 318 320 321 322 322 323 324
295 292 290 279 285 283 284 284 283 283 282 285 287 286 287 286 289 289 292 291 291 289 290 289 292 293 290 290 291 291 294 298 300 298 298 298 294 296 296 297 298 296 300 298 299 299 298 297 296 297 297 298 298 297 299 298 301 311 309 308 309 309 308 308 307 305 305 303 302 304 304 303 304 305 306 306 311 310 314 315 316 317 317 318 317 315 312 313 314 316 318 319 320 321 321 322 323
290 288 281 282 280 282 283 283 284 286 285 285 286 286 286 286 288 290 292 291 289 288 288 290 290 292 292 291 292 294 294 296 296 296 296 296 295 295 295 296 295 295 295 295 296 297 297 296 296 296 296 297 297 299 299 300 301 305 298 296 298 302 304 306 299 298 302 294 300 297 298 302 302 303 305 309 308 310 311 315 316 317 317 318 318 316 315 314 314 316 317 319 319 319 320 318 316
287 284 282 282 281 282 284 285 285 285 285 286 287 284 287 286 287 290 290 287 288 288 288 288 290 292 293 293 292 294 294 294 295 295 295 295 294 295 295 296 296 295 294 295 296 296 296 296 296 298 297 296 297 297 298 299 299 297 297 297 299 302 300 300 294 296 293 293 294 294 300 298 300 302 305 309 310 312 312 314 315 316 316 317 318 318 316 315 314 315 317 318 319 319 317 311 311
288 285 285 279 283 285 285 287 288 286 287 287 285 287 287 289 288 291 289 285 284 286 287 287 288 290 291 291 293 293 294 294 294 294 294 294 294 295 295 295 296 295 294 294 295 298 297 297 296 296 297 296 297 296 299 298 297 297 298 297 296 295 295 296 293 293 293 293 293 294 296 297 300 301 307 309 310 310 311 314 314 314 314 315 316 317 317 316 315 315 315 316 317 317 309 309 309
286 284 280 283 283 285 287 286 287 287 287 286 285 288 288 289 288 290 286 286 284 287 288 290 289 290 291 290 292 293 293 294 294 295 294 294 295 296 296 297 296 296 294 295 297 298 297 296 297 296 298 296 297 295 299 296 298 297 296 295 296 295 295 294 294 292 292 293 292 293 295 297 299 301 303 305 307 310 312 311 311 310 311 311 314 314 314 311 313 311 311 313 311 310 308 306 309
284 284 284 284 284 285 288 286 287 286 287 287 285 287 287 289 289 288 286 286 284 282 287 290 290 290 288 292 292 294 293 294 294 295 295 295 295 295 296 297 297 294 294 297 294 294 295 298 296 296 297 297 298 296 296 298 300 295 296 295 297 296 296 295 294 292 293 293 291 293 296 295 297 300 302 304 307 309 311 311 310 310 309 310 311 313 314 313 309 309 310 310 307 306 307 307 310
284 285 284 285 284 286 287 288 287 286 286 285 285 287 289 287 287 286 287 288 287 287 288 289 289 289 290 292 293 294 294 293 293 294 294 294 295 296 296 296 295 295 293 295 293 294 298 297 296 296 296 296 296 296 296 296 295 295 295 296 299 296 297 295 292 292 293 293 291 293 294 293 296 298 301 304 306 308 310 311 311 309 308 308 310 311 312 313 314 311 311 311 308 305 306 309 312
284 283 284 287 285 287 287 289 286 283 285 287 287 289 289 287 286 287 286 290 292 291 288 288 289 290 290 292 292 293 293 292 293 293 294 295 295 296 297 296 296 293 294 294 294 295 297 298 297 297 296 296 295 296 296 295 295 295 295 301 296 297 299 295 292 293 294 292 293 292 296 293 294 296 300 303 305 307 309 311 312 310 308 308 310 311 311 311 312 314 313 313 313 308 307 311 314
284 285 285 287 286 287 286 286 286 287 287 287 288 288 286 286 286 286 289 291 291 291 291 290 291 289 290 290 289 290 290 290 291 292 293 293 294 296 296 295 294 294 294 294 294 295 296 298 298 297 296 299 297 296 297 295 295 295 295 295 295 301 297 293 293 294 292 292 291 292 294 292 293 295 298 303 305 307 309 310 311 311 309 308 309 310 310 310 310 311 312 314 315 314 314 315 316
286 285 285 286 287 288 286 288 287 288 290 289 288 285 285 285 286 287 291 292 291 291 290 290 289 290 289 290 289 289 289 290 290 291 293 293 294 295 296 296 295 295 296 294 294 295 295 296 297 297 297 296 297 297 296 295 295 295 296 295 294 298 294 294 295 292 291 290 290 292 292 292 293 294 296 301 305 306 308 310 310 311 311 309 308 309 310 310 309 309 310 310 310 311 310 311 313
285 285 285 286 287 287 288 288 286 286 289 288 288 285 287 288 289 285 286 287 288 289 289 288 289 289 289 290 289 288 289 290 291 291 293 294 294 295 296 295 295 297 296 295 294 295 297 298 296 296 296 301 297 297 296 296 296 295 297 295 295 294 294 296 294 292 292 290 292 291 291 291 295 294 295 299 304 306 308 309 309 310 310 310 310 309 310 309 308 307 307 308 308 309 309 311 312
287 286 285 286 285 286 287 286 286 287 288 286 287 286 286 287 288 286 288 288 289 288 288 288 287 288 288 289 289 289 289 290 290 291 292 292 293 294 294 294 295 295 294 295 294 294 296 296 295 296 296 297 300 297 299 298 298 296 297 295 294 295 295 294 293 293 295 291 291 291 291 291 296 293 294 297 302 305 307 308 309 309 309 310 310 309 309 309 309 308 307 307 307 308 308 309 310
286 287 284 285 284 287 287 287 288 287 287 287 287 286 285 285 285 289 289 289 291 288 288 288 287 287 287 287 288 288 290 290 289 289 292 293 292 294 294 294 294 294 295 295 294 296 295 295 296 296 297 297 297 296 296 296 296 296 295 294 295 298 294 293 293 294 293 291 292 290 290 291 294 292 293 295 299 302 304 307 308 309 309 309 309 309 309 309 308 308 307 307 306 307 307 308 308
287 286 283 285 281 283 288 287 288 288 289 286 287 281 282 284 287 289 288 288 288 290 288 287 287 286 286 287 288 289 289 289 290 292 293 292 292 292 294 294 295 295 295 294 294 295 297 298 300 299 298 297 298 296 297 296 296 296 298 296 297 296 293 292 295 294 293 292 291 290 290 292 293 291 292 293 296 300 301 304 306 308 309 309 309 309 308 307 306 306 307 306 305 305 305 306 307
285 286 283 282 283 284 288 288 288 288 289 287 289 283 282 283 286 288 288 289 288 288 287 286 286 286 286 287 288 289 290 290 292 293 293 293 292 293 294 293 294 294 296 294 294 295 297 297 299 299 301 298 299 298 298 298 297 297 297 296 296 295 294 293 292 293 292 291 291 289 291 293 293 291 292 292 294 297 299 302 303 305 308 309 309 308 308 307 305 304 306 305 305 305 305 305 305
285 285 283 280 284 280 284 287 286 286 288 287 287 281 282 284 287 287 288 288 287 287 287 286 286 286 287 286 287 288 290 290 290 291 291 292 293 293 294 294 294 293 294 295 294 296 295 294 297 296 297 298 297 298 297 296 297 296 296 301 297 294 293 294 293 293 293 291 291 289 290 293 293 290 291 292 293 295 296 299 302 303 306 308 308 308 308 307 306 304 304 305 304 304 305 304 304
281 285 280 284 282 280 285 288 287 289 288 287 287 284 284 288 287 286 287 289 288 286 287 286 285 286 286 287 287 288 289 290 290 291 292 292 293 293 294 293 294 294 294 293 294 294 295 295 298 296 296 296 296 295 296 295 295 295 295 295 295 294 294 293 293 293 292 290 290 289 290 294 292 291 291 291 292 293 294 297 300 302 304 305 306 307 307 307 306 305 304 304 304 303 304 304 304
283 282 283 281 284 284 283 287 287 286 288 285 286 284 283 285 286 286 287 289 287 286 288 287 286 285 286 286 286 287 288 289 290 290 291 291 292 294 294 297 294 294 293 294 293 295 295 294 294 295 295 295 295 296 296 296 296 295 294 294 297 296 295 294 294 292 293 291 289 290 290 292 295 291 290 291 291 293 293 294 296 300 302 302 303 304 305 306 306 305 304 303 303 303 304 304 303
283 282 282 283 282 282 284 284 287 286 285 285 283 283 286 288 289 289 290 288 287 288 288 288 286 285 287 286 286 286 287 288 290 290 291 293 293 294 294 294 295 294 294 294 293 293 294 294 295 296 298 296 295 295 295 296 295 294 293 293 293 293 293 293 293 292 293 292 290 290 292 294 294 292 291 291 291 293 291 292 294 296 300 300 301 301 301 302 304 304 304 303 302 302 302 303 303
284 282 282 283 284 283 285 285 287 286 284 283 282 284 286 287 288 289 288 287 287 289 287 286 286 286 287 287 287 287 289 289 289 291 296 294 293 295 294 294 294 294 294 293 295 294 293 294 294 294 295 296 295 295 295 294 294 294 294 293 293 292 291 294 293 293 293 291 293 292 292 291 291 294 292 290 290 292 291 291 292 293 296 298 298 299 299 299 299 300 301 301 300 300 301 302 303
284 284 283 282 282 284 285 285 286 285 284 281 282 282 282 286 288 290 288 286 285 286 287 287 286 286 288 288 288 289 289 290 293 295 295 294 295 294 294 293 293 294 294 294 294 293 293 295 295 295 296 294 295 295 294 294 294 293 291 291 291 291 292 293 294 292 291 291 291 291 292 293 292 290 293 291 290 292 291 290 290 291 293 296 297 296 296 298 298 299 299 299 301 299 300 300 301
286 282 283 283 282 283 285 287 285 284 287 282 281 284 287 288 288 288 287 286 285 286 286 286 287 285 287 288 289 289 290 289 293 296 296 296 296 295 294 293 295 295 295 294 294 295 294 293 294 296 295 294 294 296 296 295 292 293 293 294 292 291 292 293 293 292 292 294 293 292 292 292 292 291 293 291 293 290 289 289 289 290 291 293 294 294 295 298 297 299 297 298 296 298 299 299 299
281 284 282 284 282 283 284 285 284 285 286 284 282 285 287 288 287 287 286 285 284 286 287 286 286 287 288 288 288 289 290 292 293 292 292 292 294 295 294 294 293 292 292 292 293 293 293 293 294 295 295 295 295 295 294 294 293 294 293 293 292 292 291 292 292 294 293 293 292 292 292 292 292 291 291 292 291 290 289 289 290 289 290 293 292 292 292 294 295 295 296 296 296 294 295 296 299
281 281 284 283 282 282 281 282 284 286 285 282 282 283 285 285 285 284 287 285 288 289 286 286 287 288 288 288 289 290 289 290 291 291 292 290 292 293 294 294 296 294 294 294 294 294 294 296 294 294 296 295 295 296 298 296 295 294 294 293 293 293 295 294 294 294 294 293 295 293 293 293 292 292 291 290 292 290 289 289 289 289 289 292 291 290 290 291 293 294 294 295 295 293 294 294 295
281 281 279 281 282 281 281 280 283 284 285 284 283 280 281 283 283 284 285 284 288 287 287 289 288 288 288 289 290 289 290 290 290 292 292 292 293 294 295 295 294 294 295 295 295 295 297 296 296 295 296 296 295 297 296 296 296 295 294 294 293 294 293 292 292 293 293 293 295 293 295 292 292 292 292 291 292 291 289 289 289 289 289 289 291 290 289 290 291 293 293 294 294 296 294 292 293
279 279 282 283 280 282 279 280 282 277 284 283 282 277 282 281 281 284 284 284 284 284 287 288 287 287 288 290 289 288 290 289 290 290 290 291 291 291 292 292 293 294 295 296 296 296 294 296 295 295 294 294 295 295 295 295 295 295 294 293 292 291 291 290 291 291 292 293 293 292 293 292 292 292 291 291 290 292 290 289 288 289 289 290 291 289 288 290 290 292 293 294 294 293 294 293 291
282 284 282 282 281 281 280 281 281 278 279 283 279 280 279 277 286 285 284 284 285 285 284 286 286 287 287 288 289 289 290 291 290 290 291 291 292 291 292 292 293 293 295 296 294 295 295 295 295 294 295 295 295 294 294 297 294 293 293 294 293 293 291 291 290 291 291 293 293 292 293 293 292 292 292 290 290 290 291 290 289 289 289 289 291 290 287 287 288 290 293 293 292 294 294 293 291
282 283 281 282 282 281 281 279 278 281 278 279 276 280 278 277 280 283 282 284 284 283 285 285 287 287 287 288 288 288 290 289 290 291 291 291 290 291 293 293 291 294 294 293 294 294 295 296 295 295 294 296 295 294 294 295 295 293 293 292 294 292 292 294 293 293 292 293 293 294 293 292 292 291 292 291 290 290 291 290 289 289 289 289 291 290 288 287 289 289 292 291 291 293 291 292 291
283 283 283 282 282 282 280 280 279 279 280 278 275 278 280 275 277 282 283 287 286 288 287 289 287 286 286 287 288 288 289 289 290 291 292 293 293 293 292 292 293 292 292 293 294 294 295 294 295 294 295 294 295 293 295 293 296 295 294 293 293 295 294 294 294 294 294 293 292 293 292 292 292 292 291 292 291 290 292 292 289 289 289 289 291 291 289 288 287 287 287 287 288 290 292 291 290
284 283 283 281 281 280 282 279 281 277 278 279 280 277 279 275 276 282 283 284 286 287 290 289 290 290 288 288 288 288 288 288 289 291 291 291 292 292 291 291 292 293 292 292 293 292 293 292 294 295 296 295 294 293 293 294 293 295 294 293 293 294 293 293 291 292 293 291 292 293 292 292 293 293 293 291 291 291 290 290 291 290 289 289 291 290 288 287 287 287 288 287 287 287 288 290 290
284 282 282 281 280 278 277 278 279 278 275 278 279 277 279 276 278 284 284 287 284 285 287 286 288 290 292 290 289 288 289 289 290 290 290 291 291 291 291 292 292 292 292 292 293 292 292 293 293 294 295 294 293 294 293 294 292 293 294 294 293 294 294 292 292 293 292 292 293 293 293 293 292 293 292 294 292 292 290 291 291 290 290 291 292 290 289 289 288 287 288 287 287 287 287 286 288
283 281 281 282 283 278 279 270 270 275 274 276 279 278 279 277 279 283 283 285 284 289 287 289 290 290 291 292 292 291 290 290 290 291 291 290 292 291 291 293 293 294 294 295 294 294 294 293 293 294 296 295 294 294 293 294 293 292 292 293 294 294 293 293 293 293 293 292 292 293 293 292 293 293 293 292 293 292 292 291 291 290 291 290 290 290 290 290 289 288 287 287 288 287 286 289 287
280 278 278 281 274 273 278 271 280 274 276 281 278 280 279 278 279 284 287 285 286 285 289 289 288 289 290 291 293 292 291 290 291 292 291 291 291 291 292 293 293 294 294 294 294 294 294 294 293 294 297 295 295 293 293 293 292 292 293 293 293 295 293 293 293 293 293 293 293 293 293 293 293 293 293 293 293 293 293 293 292 291 291 291 291 290 290 289 289 288 288 287 287 287 288 287 287
279 280 275 274 272 265 270 264 269 272 276 279 278 279 280 279 283 284 285 285 285 286 286 288 289 289 289 291 291 289 290 290 291 290 290 291 292 292 292 292 293 293 293 294 294 294 293 294 292 293 295 294 293 293 293 293 293 293 292 293 294 293 294 294 294 294 294 293 293 293 293 293 294 294 294 294 294 293 292 293 293 293 292 292 291 291 290 289 288 288 288 288 288 288 287 287 287
283 280 281 280 271 274 273 270 277 276 276 277 277 277 276 279 285 287 286 284 284 285 286 286 285 286 287 288 288 288 291 293 291 292 293 294 293 293 293 292 292 292 292 293 292 293 292 294 294 293 294 295 293 294 293 293 294 294 293 293 293 292 294 294 294 295 294 294 294 293 294 293 293 294 294 295 294 292 292 292 292 292 292 292 291 291 292 290 289 289 289 288 289 288 288 288 287
281 280 280 278 280 273 278 271 272 271 273 275 277 277 277 286 286 286 283 285 288 287 289 288 291 289 288 290 291 292 294 295 293 292 292 292 292 292 291 292 291 291 291 291 292 292 293 293 291 291 292 293 292 293 293 293 293 294 292 293 294 294 295 294 294 295 294 293 294 294 294 294 294 294 294 294 294 292 293 292 292 292 292 292 291 291 291 290 290 289 289 289 289 290 288 287 288
283 283 279 281 280 278 273 273 273 274 272 274 273 281 280 283 287 287 285 287 288 287 288 288 290 289 288 290 292 293 295 294 293 293 293 293 291 291 291 291 291 291 291 292 292 291 291 292 292 293 292 291 292 292 293 293 293 293 294 293 293 293 293 293 294 294 294 294 293 293 293 294 294 294 294 294 294 293 293 292 292 293 292 292 291 291 291 290 290 289 290 289 289 289 288 288 288
283 280 282 283 282 281 278 276 267 266 272 274 276 279 279 279 280 284 288 286 286 287 287 287 289 288 290 292 292 293 293 292 291 291 291 291 291 291 291 291 291 291 291 292 292 290 290 290 290 292 292 293 293 293 293 293 293 293 294 294 294 294 294 294 294 294 294 294 294 294 293 293 294 294 294 295 294 293 293 293 292 293 293 292 292 292 290 290 289 289 290 290 290 288 288 288 289
285 283 282 284 277 279 275 271 273 273 269 270 276 276 277 279 282 282 285 284 286 286 287 287 290 291 290 291 292 291 291 290 292 293 291 292 291 291 291 291 291 291 291 290 291 291 291 291 290 290 292 292 292 292 292 294 293 294 294 294 293 294 294 294 294 294 293 294 294 294 294 294 294 294 294 293 293 293 293 293 292 292 293 293 292 292 291 291 290 290 290 290 290 289 289 289 289
279 283 282 279 282 275 275 276 272 275 270 270 275 275 280 281 279 284 285 286 286 286 286 287 288 288 288 288 289 290 290 291 292 292 292 291 291 291 291 291 292 292 291 291 290 291 292 291 292 292 293 293 293 294 293 294 294 293 293 293 293 293 293 293 293 293 293 293 294 294 294 294 294 294 294 293 293 293 293 293 293 292 292 292 292 292 292 291 291 290 291 291 291 289 289 289 290
281 281 278 281 277 279 279 276 278 278 268 268 267 271 274 279 283 283 284 285 286 287 289 288 288 287 287 287 289 289 289 290 290 290 291 292 292 291 291 290 290 289 289 290 291 291 291 292 292 292 292 292 293 293 293 293 293 293 292 292 292 292 292 293 293 293 293 293 293 293 294 293 293 294 293 293 293 293 293 293 293 293 292 293 292 293 292 291 291 291 291 291 291 290 289 290 290
280 279 280 278 278 278 276 275 272 269 275 272 267 274 278 283 286 286 285 285 286 286 289 289 287 287 287 288 287 287 289 289 289 290 290 291 291 291 290 289 290 292 292 292 292 292 291 291 291 291 292 292 292 292 292 292 291 291 291 291 292 292 292 292 292 292 292 293 293 293 293 293 293 293 293 293 293 293 293 293 292 292 292 292 292 292 292 290 291 291 291 292 291 290 290 290 290
Wind_Speed
5 4 2 1 3 3 3 3 1 2 3 1 0 1 1 1 1 2 1 0 1 1 2 1 0 2 1 1 3 2 2 3 4 2 1 1 1 4 4 4 3 4 4 4 3 1 0 3 5 7 10 12 12 13 13 13 13 14 14 14 13 13 13 14 14 14 14 14 15 16 15 16 16 17 19 19 18 17 17 16 15 17 17 17 17 18 18 19 20 21 21 18 13 14 13 12 10
3 4 2 0 1 2 1 1 3 1 6 3 0 1 1 1 3 2 3 3 2 1 2 1 1 1 2 1 1 0 1 2 5 0 0 2 1 1 3 3 4 4 4 4 3 2 0 1 4 6 10 11 11 12 12 13 13 13 13 14 14 14 14 14 14 14 15 15 16 16 16 16 16 17 18 19 19 18 18 16 15 16 17 17 17 17 17 17 20 21 21 19 17 14 11 10 10
2 4 4 3 4 2 0 3 1 1 3 2 2 2 1 1 2 2 4 3 3 2 0 0 1 1 1 2 1 2 3 1 0 0 1 0 1 2 2 3 2 4 5 3 3 1 1 2 3 7 9 10 10 11 12 12 13 13 13 13 14 14 14 14 14 15 15 16 16 16 17 17 18 17 18 18 19 18 18 18 16 17 17 18 17 16 17 19 20 21 21 20 16 15 13 12 10
0 2 2 2 1 3 1 3 3 5 3 4 0 2 1 6 4 4 3 3 3 0 1 1 1 0 1 0 2 1 1 0 2 3 1 2 4 3 3 3 2 3 3 2 2 2 1 2 4 8 8 9 10 11 11 12 12 12 12 13 13 13 14 14 14 14 15 15 17 17 17 18 18 18 18 18 18 18 18 18 18 17 18 18 19 19 18 17 18 20 20 21 18 14 12 13 14
2 1 1 2 3 3 1 1 3 2 1 4 2 2 1 2 5 4 3 4 1 1 0 0 0 1 2 1 1 1 3 2 2 2 1 1 1 3 3 3 4 4 3 2 2 2 1 3 7 8 8 9 10 10 11 11 12 12 12 13 13 13 13 14 14 14 14 15 16 17 17 18 18 19 19 19 18 19 18 18 18 17 16 16 17 18 18 17 17 19 19 20 19 16 11 12 13
3 3 2 1 1 2 6 1 4 2 1 3 2 2 3 4 6 5 2 2 1 1 2 1 1 1 1 1 2 0 2 1 1 0 2 2 4 4 3 3 4 3 2 1 2 2 0 4 6 7 7 8 9 10 11 11 12 12 12 12 13 13 13 14 14 14 15 15 16 17 19 19 19 19 19 19 18 19 17 17 17 18 19 18 17 18 18 17 17 18 19 19 18 16 10 10 13
0 4 3 4 2 6 3 5 2 1 2 3 3 3 6 4 4 4 1 0 1 2 1 1 1 1 1 1 1 1 1 0 2 2 4 3 3 2 3 3 2 2 2 1 2 2 1 3 5 6 7 8 9 10 10 11 12 12 12 12 13 13 13 14 14 15 15 15 16 16 17 18 19 19 18 18 17 17 17 17 18 18 18 18 17 17 17 17 17 17 18 18 16 16 11 9 11
1 2 1 3 0 4 3 2 1 2 1 1 1 5 4 5 4 4 5 2 2 1 1 2 0 2 4 2 1 1 3 2 3 4 4 4 4 3 3 3 1 1 3 2 3 2 2 2 4 5 6 7 8 9 10 11 12 12 12 13 13 13 14 14 15 15 15 16 16 16 18 19 18 17 16 17 17 17 18 17 17 17 17 16 17 17 16 16 17 16 17 18 15 16 12 12 12
3 4 1 4 3 2 3 1 0 1 0 1 0 4 4 5 6 4 4 3 1 1 0 1 1 1 2 2 2 1 2 1 4 5 5 5 4 3 3 2 3 3 4 4 3 3 1 4 4 4 5 7 8 9 10 11 12 12 13 13 13 13 14 14 15 15 16 16 16 15 17 18 17 17 16 17 17 17 16 17 17 17 17 17 16 17 17 16 16 16 16 17 16 14 13 12 11
2 2 1 2 3 3 2 1 3 1 2 2 4 2 3 3 2 4 4 1 3 1 3 1 1 2 1 3 2 2 2 5 3 2 3 5 3 2 2 4 4 4 4 4 4 3 3 4 5 5 5 6 7 9 10 11 12 12 13 13 13 13 14 14 15 15 15 15 15 15 16 17 17 17 17 16 16 17 16 17 17 17 17 18 17 16 17 17 17 16 16 16 15 15 13 13 13
1 4 2 2 4 2 2 2 2 1 1 0 2 2 3 1 2 0 2 2 1 3 1 2 1 3 0 3 3 3 3 4 4 4 3 4 3 2 4 4 5 5 5 5 5 4 4 3 5 7 6 6 6 8 9 11 12 12 13 13 13 14 14 15 15 15 15 15 15 15 15 18 17 18 17 15 15 15 16 16 15 15 16 15 15 14 15 16 17 17 16 16 14 14 12 13 13
1 1 2 2 1 3 4 5 2 2 1 1 2 2 2 3 1 1 0 2 1 2 3 5 1 2 1 1 2 1 0 1 5 5 5 4 3 3 4 4 4 5 5 5 5 4 4 3 3 6 8 7 6 7 9 10 12 12 13 13 14 14 14 15 15 15 15 15 15 16 16 17 17 16 17 16 15 15 15 15 17 16 16 16 16 15 15 15 15 16 15 15 14 14 14 14 14
3 1 5 5 0 2 2 4 4 1 0 4 4 2 1 3 2 3 4 3 0 1 3 5 1 1 2 1 2 2 2 4 4 5 5 4 4 4 3 4 3 3 4 5 5 5 4 4 4 4 6 8 4 5 7 10 11 12 13 13 14 14 14 15 15 15 15 16 16 17 17 17 16 16 16 17 16 15 16 17 17 16 16 16 16 15 14 15 14 15 14 14 14 13 13 14 14
2 3 4 1 1 5 4 2 0 3 4 3 2 1 3 2 3 3 3 2 3 2 2 3 1 3 3 1 3 2 5 4 5 5 3 4 1 2 4 3 4 3 4 4 6 5 4 4 4 4 4 4 1 3 6 8 10 11 12 12 13 14 14 15 15 16 16 16 16 17 17 17 16 16 17 17 17 16 17 16 16 17 16 13 13 13 12 12 12 14 13 13 13 12 12 13 14
0 1 5 4 1 1 2 3 8 3 4 3 3 4 1 3 2 2 2 3 5 4 0 1 3 2 4 4 6 5 6 6 6 5 3 0 1 2 3 2 4 2 4 5 4 3 5 4 4 4 4 3 1 2 3 4 9 10 11 11 12 13 14 14 14 15 16 15 16 16 15 16 16 16 17 17 18 17 17 17 16 15 15 12 12 12 10 10 11 11 11 12 12 12 12 13 13
2 5 4 3 1 2 2 1 1 3 4 5 3 4 3 1 1 1 3 3 1 1 1 4 0 3 2 4 3 7 8 6 6 3 1 0 2 2 4 3 4 4 3 4 4 4 4 4 4 4 4 3 1 2 3 4 6 8 9 10 11 11 12 13 13 14 14 14 14 14 14 11 11 11 17 14 17 18 17 16 16 16 17 15 12 11 9 9 10 10 10 11 11 11 11 13 13
2 3 1 4 1 2 2 1 6 2 1 3 1 4 5 3 1 1 0 1 1 3 1 3 4 0 4 5 3 4 5 4 4 3 2 0 2 2 4 5 5 4 3 3 4 5 4 4 5 4 4 2 1 2 3 4 4 7 6 7 9 9 10 11 11 11 11 10 10 11 11 7 7 7 9 9 15 10 15 17 16 17 18 17 13 10 5 8 9 9 9 10 11 10 10 11 10
2 2 4 1 2 2 3 3 6 1 5 5 4 5 4 1 1 1 1 1 1 3 3 5 4 5 4 2 3 2 4 6 4 5 2 3 1 2 3 4 3 4 2 3 3 3 3 4 4 4 2 1 1 2 3 3 4 5 5 4 4 5 6 8 6 5 7 6 9 8 6 6 6 7 8 9 9 9 10 17 16 15 16 18 17 10 8 7 8 8 9 9 12 10 10 4 3
4 2 2 4 5 2 2 1 2 4 3 6 5 3 4 4 4 1 1 3 1 4 5 3 6 7 6 5 1 3 5 5 5 5 5 5 4 4 6 5 5 4 4 4 4 4 4 4 3 3 1 1 1 2 3 3 4 4 5 4 3 5 5 4 5 5 5 5 6 6 6 6 6 6 7 10 11 13 11 14 15 13 14 16 18 17 6 9 7 6 10 10 11 10 4 3 2
0 2 1 3 5 1 1 1 1 4 3 6 4 3 3 1 3 1 2 3 2 6 5 2 5 9 8 6 1 3 4 5 4 5 5 5 5 5 5 5 5 5 5 4 3 2 3 4 4 2 2 2 1 2 3 4 4 4 5 4 4 4 4 4 4 5 5 5 6 5 6 6 7 6 9 13 12 8 8 10 15 13 12 12 16 11 10 7 8 10 8 9 8 1 1 2 3
1 3 2 3 4 4 1 1 2 1 6 5 4 0 2 1 3 1 2 1 7 9 8 8 7 9 9 7 5 4 4 4 4 3 4 4 5 3 5 5 5 5 4 2 2 4 2 2 1 2 2 2 1 2 2 4 4 4 4 5 4 3 4 5 5 5 5 5 6 5 5 5 6 6 6 7 7 8 8 7 7 6 6 7 11 8 6 4 5 3 4 5 3 0 1 3 3
4 1 1 2 1 2 1 1 2 1 1 6 1 4 4 0 0 2 3 5 9 4 5 8 7 6 5 2 4 3 4 5 5 4 5 5 6 6 4 6 5 4 3 1 4 4 3 3 3 3 2 2 2 3 2 3 3 5 5 5 5 4 4 5 5 6 6 6 5 5 4 6 6 7 7 7 7 7 8 6 6 6 5 6 7 5 6 4 3 4 5 4 4 1 3 3 3
1 1 1 0 2 1 1 0 4 2 2 4 3 3 1 0 3 3 5 11 6 5 2 7 7 7 7 2 4 4 3 5 5 5 5 5 6 6 7 6 5 5 4 5 3 3 3 2 3 2 3 3 3 2 1 1 3 3 4 5 4 6 4 4 5 6 6 5 5 5 6 6 6 6 7 7 8 7 7 6 6 5 5 4 5 6 6 6 5 3 4 4 3 2 4 3 3
6 3 0 1 1 3 2 1 3 3 8 3 2 1 1 0 3 0 4 10 11 7 3 3 3 2 2 4 4 5 6 5 6 6 6 7 6 8 7 6 6 3 1 4 3 3 3 3 2 1 4 2 4 2 1 3 3 4 4 4 4 5 5 4 4 4 5 6 4 5 4 5 5 7 7 7 8 7 7 7 6 5 5 5 3 5 6 6 6 5 1 4 3 2 3 3 4
3 1 1 0 1 0 0 1 1 1 1 0 2 0 4 3 3 4 10 12 9 10 6 5 2 2 2 3 4 4 4 4 5 7 4 5 6 5 4 5 4 1 3 4 4 3 4 3 2 4 4 3 3 1 1 3 3 3 4 4 5 4 5 4 3 4 5 6 5 4 4 6 6 6 7 7 7 7 7 8 6 6 5 5 4 5 7 7 6 6 6 5 2 1 2 2 1
1 2 3 1 0 0 0 0 0 0 0 0 1 4 6 5 5 5 17 12 8 6 2 3 2 3 4 5 4 5 5 6 5 5 8 5 2 3 6 5 2 2 6 4 3 4 4 2 3 4 3 3 2 1 3 2 3 3 4 4 4 4 5 5 2 4 4 4 6 4 4 4 5 5 6 7 7 7 7 7 7 7 6 6 6 5 5 5 6 6 6 5 5 3 2 2 2
3 5 3 4 1 1 0 1 2 2 1 1 1 3 2 2 3 8 2 5 4 2 5 2 4 6 5 4 4 4 5 7 8 6 3 3 2 4 6 3 3 7 2 4 4 5 3 2 4 4 3 2 1 2 2 3 3 4 5 4 4 4 4 4 3 3 3 4 4 4 4 4 5 5 6 6 6 6 6 7 7 7 6 6 6 5 3 5 5 6 6 5 5 4 4 4 4
6 6 4 4 2 2 0 1 3 0 2 3 2 4 1 3 1 9 5 2 2 3 4 3 4 5 5 5 5 4 4 7 6 2 7 5 5 6 5 5 7 6 4 6 5 3 2 5 4 4 3 2 1 2 2 3 4 4 4 4 4 4 3 4 5 3 3 4 3 4 3 4 4 5 5 6 6 7 6 6 6 7 7 6 6 6 6 3 5 4 5 5 5 5 4 3 4
5 2 1 1 3 0 1 1 1 0 2 3 2 4 2 1 5 10 8 4 0 2 3 3 4 4 4 5 5 5 7 6 4 4 8 8 6 5 7 7 7 5 6 5 5 3 5 5 4 4 4 3 3 4 3 4 4 4 4 4 4 4 3 3 4 5 5 3 3 3 4 3 4 4 6 5 6 6 6 6 6 6 6 6 6 6 6 6 5 5 6 5 5 5 5 6 5
1 2 5 1 2 1 2 0 1 1 2 2 1 3 2 5 13 11 6 0 1 1 2 3 3 3 4 5 5 6 6 5 5 9 8 7 6 6 7 6 5 6 5 5 2 4 5 3 3 3 3 4 5 4 4 4 4 4 4 5 4 4 4 3 4 4 3 3 2 2 3 3 3 4 4 6 5 6 6 6 5 5 5 6 5 5 6 5 5 5 5 6 6 6 6 6 5
1 0 2 0 1 2 1 0 0 0 1 2 0 1 7 7 9 8 5 1 4 4 5 4 4 4 4 5 5 7 8 6 8 8 7 7 6 5 7 5 5 5 2 2 6 8 5 5 3 3 3 4 3 4 4 4 4 4 5 5 5 4 4 4 4 4 3 5 1 2 2 2 3 3 3 4 5 5 6 6 6 5 4 3 5 5 5 5 5 5 5 5 5 5 5 6 6
1 1 1 3 0 3 4 1 0 1 1 3 1 1 8 6 8 6 3 2 2 5 5 5 4 4 5 5 5 6 9 5 5 6 6 6 5 6 6 7 5 4 6 6 6 3 4 5 3 4 3 4 4 5 4 4 4 4 4 4 4 4 4 4 5 4 4 4 3 2 1 2 2 2 2 3 5 5 5 6 6 6 6 4 4 4 5 6 5 5 5 5 4 4 5 5 4
4 2 2 1 1 5 4 0 1 1 0 2 2 6 6 4 2 2 3 2 2 5 6 5 5 5 5 5 5 5 6 6 4 5 7 6 6 5 5 5 6 7 5 4 5 4 4 4 3 4 5 5 5 5 4 4 4 4 4 4 4 4 5 6 5 4 3 3 3 3 1 1 2 2 2 2 3 4 5 5 6 6 6 5 5 4 4 4 5 5 5 6 5 4 2 6 4
1 2 1 1 1 1 2 1 0 2 0 2 0 3 7 4 7 6 6 0 1 4 7 6 5 4 5 4 4 5 5 4 4 4 5 4 5 5 5 5 5 5 4 4 4 5 6 5 4 5 4 4 4 4 4 4 4 3 3 3 3 4 4 4 6 3 6 5 3 4 3 1 1 2 3 1 2 2 3 3 5 6 6 6 5 5 5 3 3 4 5 5 5 4 4 4 4
2 0 1 2 2 3 3 0 0 2 1 3 1 4 15 14 10 10 9 3 4 7 9 7 5 5 5 4 4 4 4 3 5 5 5 4 4 4 4 4 3 3 3 4 3 4 2 3 3 4 4 4 4 4 4 4 4 4 3 3 3 3 3 4 3 4 6 5 5 4 3 2 1 1 2 3 2 2 3 4 5 5 5 6 5 5 5 4 4 3 4 4 4 4 3 3 3
3 3 2 0 1 2 2 2 1 1 4 4 4 6 9 11 10 8 5 4 7 10 6 5 5 4 5 5 4 4 2 5 6 3 2 2 3 4 4 4 4 3 2 1 2 1 3 4 3 4 4 4 3 3 3 4 3 4 5 5 4 3 2 3 2 5 4 4 5 4 4 3 2 1 1 1 3 2 1 2 3 4 5 4 5 6 5 5 4 3 2 2 2 2 3 2 2
2 2 1 3 2 6 3 2 2 0 2 4 4 4 6 13 12 12 6 3 3 5 7 7 6 5 5 5 4 3 3 4 1 3 2 1 2 3 3 2 3 2 2 2 2 4 4 5 2 6 5 3 3 4 3 3 4 4 2 2 4 4 4 3 3 4 3 4 4 4 4 4 3 2 1 0 1 3 2 1 2 3 3 4 4 4 3 3 2 1 0 1 2 2 1 1 1
1 2 1 4 3 3 2 0 2 3 4 4 2 6 11 10 9 8 4 2 4 6 6 7 8 5 5 5 5 5 5 4 2 1 2 1 1 2 1 2 1 1 4 3 4 6 5 3 4 7 4 4 4 4 5 2 3 3 3 5 4 4 4 4 5 3 3 3 4 4 4 4 4 4 2 1 1 1 3 4 1 1 2 3 3 2 4 3 4 5 3 3 2 1 0 0 0
2 2 3 0 2 5 5 1 4 3 3 7 3 7 12 11 9 8 2 3 2 5 6 5 5 6 5 5 5 5 2 2 1 3 2 3 3 3 2 3 3 4 3 4 4 4 5 5 5 5 5 4 4 4 3 4 4 4 3 4 3 4 3 3 3 5 3 4 4 4 4 4 4 4 3 2 2 2 2 1 3 2 1 1 3 4 4 5 3 3 4 3 3 1 0 1 0
2 1 1 3 1 3 3 1 5 5 0 3 4 7 11 8 5 3 1 1 2 2 4 5 5 5 5 5 5 4 4 4 4 3 1 2 1 3 3 4 5 3 4 5 5 5 5 4 5 5 6 4 4 4 4 5 4 3 2 2 2 2 4 3 4 5 5 4 6 4 4 4 4 5 4 4 3 3 3 3 2 3 2 0 1 2 3 4 3 3 3 4 1 2 4 2 0
0 1 1 0 1 1 2 5 6 6 1 1 5 2 5 3 4 6 2 3 1 3 2 2 4 3 3 3 2 3 5 5 4 2 2 3 1 4 5 6 3 4 5 6 6 5 4 6 6 5 5 5 4 4 5 4 1 2 1 2 1 3 2 3 4 6 4 3 4 4 6 4 4 5 4 4 4 4 3 3 3 3 2 1 0 0 0 2 2 1 1 2 2 0 4 2 2
2 2 1 0 1 1 3 4 7 5 1 1 4 2 1 4 4 3 5 6 3 2 2 4 4 4 3 3 4 3 3 3 4 3 3 3 3 4 4 5 5 5 6 7 6 5 4 6 5 4 4 4 5 5 4 2 4 4 3 3 5 4 6 5 4 4 5 5 5 4 5 3 4 4 4 4 4 4 4 4 3 3 3 3 2 2 2 0 1 2 1 0 1 2 1 0 2
1 1 3 1 1 1 1 5 2 1 2 3 2 1 0 4 2 3 4 6 6 6 1 5 4 4 4 4 4 4 4 4 4 4 5 4 4 3 4 5 6 5 8 6 4 5 4 5 5 4 4 4 4 4 2 1 3 2 4 5 4 5 5 6 3 3 5 6 4 6 6 5 3 4 4 4 4 4 4 4 4 4 3 3 2 1 2 3 3 3 1 0 2 0 1 1 2
2 0 2 1 1 1 0 2 1 1 2 4 5 3 1 1 3 2 4 4 5 3 3 4 4 4 4 4 4 5 5 5 5 5 5 5 4 4 6 6 5 8 6 3 4 4 5 6 5 5 4 4 4 3 2 2 4 4 4 4 4 6 6 8 6 5 3 4 6 7 5 6 4 3 4 4 4 4 4 5 4 4 4 4 2 4 4 3 2 3 3 3 3 2 2 3 4
1 0 2 0 1 1 2 1 1 1 1 1 3 4 2 2 4 3 3 1 3 2 2 3 3 3 4 5 6 5 6 6 5 5 5 6 6 6 6 6 5 5 5 5 5 4 3 3 3 3 4 4 4 2 3 3 3 4 5 4 5 6 5 7 6 5 6 4 5 6 5 5 5 4 4 5 4 4 4 4 4 4 4 5 4 4 4 3 4 4 3 2 4 4 5 4 3
1 1 2 3 3 3 1 1 2 2 1 1 2 3 0 4 5 4 2 1 0 1 1 2 2 2 2 2 3 4 5 5 4 6 4 4 4 5 4 4 6 5 4 4 4 4 4 4 3 3 5 3 3 4 2 4 4 3 4 4 5 8 5 6 4 7 6 4 5 6 5 6 6 5 5 4 4 4 4 4 4 5 5 5 4 4 4 4 4 4 5 4 3 3 3 3 5
0 2 1 1 2 1 2 4 1 1 1 1 1 2 1 1 2 5 3 2 4 3 1 2 3 2 1 1 2 2 2 3 3 3 4 4 5 4 3 4 5 5 5 4 4 4 4 4 2 3 5 4 3 4 3 5 4 3 4 5 5 7 7 5 7 8 6 5 5 7 6 6 5 6 5 6 4 4 4 4 4 5 4 4 5 5 6 5 5 4 4 3 4 5 5 4 4
1 1 1 2 1 2 1 2 3 1 2 2 2 1 2 1 2 5 8 3 3 9 5 4 2 2 1 0 1 1 1 2 2 1 2 4 5 4 5 5 6 6 6 7 6 5 5 4 3 3 6 4 4 4 3 4 3 4 4 4 6 7 5 5 6 8 7 6 6 7 7 6 7 6 5 6 6 4 4 5 4 4 5 5 6 6 6 5 5 4 4 5 5 4 4 4 4
2 2 3 1 4 3 2 3 1 1 1 0 1 2 1 4 6 1 1 4 3 5 7 7 6 4 2 1 0 1 2 2 1 1 2 3 2 3 4 5 6 6 6 6 6 5 5 5 4 4 6 5 5 5 4 4 4 4 4 4 5 5 5 5 6 7 6 6 6 7 7 7 7 7 6 5 7 5 4 5 5 6 6 6 7 5 6 5 5 4 5 5 5 6 7 5 6
2 0 1 2 1 2 1 2 1 4 3 1 1 2 2 4 7 6 5 5 5 5 5 4 7 5 4 2 1 2 2 1 1 1 1 1 2 3 2 3 4 4 5 5 5 5 5 5 4 4 5 4 4 5 5 5 5 4 3 4 4 4 5 5 6 6 7 6 6 6 6 6 7 7 8 8 6 5 4 6 5 6 6 6 5 6 6 5 4 6 5 6 7 7 5 5 7
1 1 0 1 4 1 1 1 1 1 3 3 3 0 4 3 3 1 7 3 3 2 2 2 2 2 1 2 3 2 0 1 1 2 2 2 2 2 3 3 4 4 4 4 4 5 5 5 6 6 6 7 6 6 5 5 6 5 4 3 4 3 5 5 6 5 6 6 6 5 6 6 6 7 7 7 5 5 6 5 5 6 7 7 6 6 6 5 5 5 5 7 7 6 6 6 7
1 2 2 3 0 3 0 1 1 1 2 4 1 3 3 1 2 4 2 1 0 1 0 1 0 0 1 1 1 0 0 0 1 2 2 3 2 3 3 4 3 4 4 4 5 5 5 5 5 4 4 5 5 5 6 5 6 6 5 5 5 4 4 4 5 5 5 4 6 5 7 6 6 6 7 6 7 5 6 6 5 7 6 6 6 6 6 6 5 6 6 6 8 4 6 7 8
1 0 0 0 1 5 5 1 0 1 3 5 0 6 4 8 2 1 3 0 1 1 1 0 0 0 1 1 0 0 0 0 0 1 1 2 3 3 2 3 4 4 5 5 4 4 4 5 5 6 6 5 6 5 5 5 6 6 7 6 6 6 6 6 7 7 7 5 4 5 5 6 6 6 7 5 7 5 5 5 6 7 6 6 6 6 6 6 5 5 6 7 8 6 6 8 7
0 0 1 0 1 1 1 1 2 4 1 4 1 1 7 4 2 3 1 1 4 2 1 1 0 0 2 1 1 2 1 1 2 1 1 1 1 1 3 3 3 3 3 5 5 4 3 3 4 5 6 7 7 6 7 6 6 7 7 8 8 7 7 7 7 7 7 7 7 5 5 6 6 7 5 6 5 6 6 5 5 7 6 5 6 6 5 6 5 6 7 7 7 4 6 6 7
0 1 0 0 0 0 2 3 1 1 2 4 6 2 5 4 4 0 4 6 6 5 2 1 3 1 2 2 2 2 3 3 1 1 2 2 2 3 3 3 3 3 3 3 4 5 5 6 5 4 6 6 5 5 5 7 7 6 6 7 7 8 8 7 7 7 6 7 8 8 7 7 7 6 7 7 6 7 6 6 5 6 6 6 5 6 5 6 5 6 6 7 6 5 7 8 8
1 0 0 0 1 1 1 1 2 4 2 3 4 4 3 5 3 7 6 8 7 6 3 5 5 5 4 4 4 4 4 3 1 1 1 1 1 2 2 2 4 4 5 5 5 5 7 6 7 8 8 8 9 10 8 9 9 8 9 8 9 7 8 8 8 8 9 9 8 8 9 9 9 8 7 6 6 6 7 7 6 6 7 6 6 6 5 6 5 6 6 7 7 5 7 9 9
1 1 1 1 1 1 2 1 0 1 2 3 1 5 4 4 6 5 5 6 8 8 9 6 6 5 5 5 5 5 4 3 2 1 0 0 1 2 2 2 3 3 3 5 6 6 6 7 7 7 9 9 10 9 9 8 8 9 9 10 9 9 11 9 9 10 10 10 10 10 10 8 7 9 8 9 8 8 7 7 7 7 6 7 6 7 5 4 5 6 6 6 7 6 7 9 7
1 3 2 4 2 1 1 4 1 1 1 2 2 7 8 12 2 5 3 4 6 7 8 8 6 5 5 4 5 5 4 4 2 1 1 0 1 2 3 4 5 7 8 8 6 7 7 7 6 7 8 9 8 9 8 7 7 8 9 10 10 9 9 10 11 11 12 11 10 11 10 10 10 10 9 10 10 9 8 8 7 8 7 7 7 7 6 4 6 6 7 5 6 7 7 9 7
Wind_Direction
332 325 324 166 87 64 59 5 143 318 60 46 62 10 209 43 162 61 120 296 1 253 226 279 336 59 160 208 191 196 203 127 210 123 215 230 229 199 177 180 204 165 182 209 225 226 244 277 334 332 336 343 344 344 344 344 342 339 340 340 340 340 338 336 335 334 334 335 333 333 333 332 330 328 326 325 325 325 324 324 321 315 311 310 308 308 309 306 301 300 302 298 292 273 269 267 267
310 327 344 113 88 88 238 127 93 26 34 53 251 106 211 292 49 150 180 198 208 215 233 216 337 289 19 63 161 100 291 220 171 195 222 219 117 257 216 176 160 166 196 215 227 226 193 256 322 331 336 338 340 341 342 340 338 338 339 339 340 339 338 337 336 336 336 339 335 333 332 333 333 332 330 326 324 325 324 320 317 312 306 300 298 300 299 301 302 298 302 301 296 293 283 284 257
344 356 29 43 26 70 83 38 1 71 97 224 268 200 330 54 153 210 219 213 215 232 291 341 292 7 9 62 336 163 262 307 23 234 138 148 110 237 242 231 172 168 176 212 220 224 197 244 313 330 331 335 338 339 339 338 337 337 338 337 338 338 338 337 337 339 340 338 339 333 333 335 335 333 331 329 325 324 324 320 312 309 307 303 299 292 293 295 296 295 300 299 292 289 292 286 254
92 31 107 64 325 25 64 27 87 128 158 207 267 294 179 156 191 193 222 224 235 37 17 253 126 254 113 19 212 69 258 316 206 149 118 200 202 220 232 227 129 136 138 196 223 201 198 249 327 323 326 327 334 335 334 335 338 338 335 336 336 337 337 337 338 340 340 339 341 339 339 339 337 334 330 329 326 326 324 321 317 316 311 309 307 303 291 288 291 287 293 297 290 284 276 274 283
61 336 67 96 102 358 88 122 125 90 148 195 171 277 211 189 172 199 240 244 272 159 128 128 72 306 179 214 167 169 243 235 310 135 153 238 238 208 212 204 123 112 147 194 206 192 190 289 320 322 321 320 325 327 330 333 337 336 334 333 335 337 337 339 341 341 339 340 339 339 339 339 338 334 333 331 330 327 324 322 322 319 316 315 311 307 299 287 288 285 287 296 289 282 274 278 286
64 65 5 81 60 163 49 38 3 67 220 145 123 219 210 196 165 198 211 270 289 281 192 129 185 247 330 228 179 151 192 91 206 49 139 220 201 214 180 127 104 124 183 228 189 160 162 266 322 318 315 319 318 325 327 331 335 334 333 333 334 336 340 342 341 340 340 340 342 342 342 342 340 336 334 333 332 331 326 325 324 322 320 318 314 308 298 294 285 285 284 294 288 282 279 278 285
3 46 356 27 17 50 148 116 147 150 308 152 190 177 187 212 203 142 221 4 273 305 240 226 87 25 12 287 2 253 197 162 90 206 160 177 185 192 159 121 111 171 223 232 176 153 185 298 311 309 309 317 321 321 325 333 335 335 333 335 336 337 340 339 339 339 341 344 344 345 345 344 340 335 335 333 333 332 330 324 319 314 312 313 311 306 301 291 285 284 286 293 284 279 278 268 275
62 101 315 93 41 54 56 154 123 160 330 120 212 146 199 201 178 143 196 127 257 152 227 290 124 124 245 342 221 272 329 219 180 160 179 128 175 201 158 157 191 254 222 229 200 174 155 273 289 294 311 314 317 323 328 332 335 335 335 336 337 339 338 338 341 343 345 345 347 349 342 342 340 341 337 335 330 327 326 323 318 313 309 309 307 301 300 295 286 283 284 292 283 278 290 279 272
353 84 2 71 57 32 68 76 84 211 251 351 124 218 200 185 175 143 183 237 325 222 268 250 224 84 267 5 227 260 286 230 162 150 142 156 157 196 191 167 182 241 231 228 214 175 172 247 263 286 298 308 318 323 329 334 336 337 338 339 339 338 339 343 346 347 348 348 348 348 341 342 344 344 340 335 332 326 327 328 325 319 315 307 301 298 295 293 284 283 286 288 282 272 281 296 281
31 71 329 117 133 47 25 304 83 189 181 234 165 201 190 197 158 159 186 247 210 126 239 200 174 224 277 283 301 296 235 197 175 80 158 163 186 208 229 219 199 193 222 224 221 190 207 222 251 265 281 302 311 323 330 333 338 339 339 340 339 338 344 346 348 349 349 350 349 348 342 342 345 343 337 333 328 326 324 325 325 321 316 311 305 297 293 288 287 282 284 284 280 262 273 287 282
11 9 148 79 29 108 165 239 267 349 189 291 286 254 222 149 131 217 189 205 166 167 256 96 311 244 53 274 203 244 278 127 131 181 190 198 188 189 217 233 209 190 202 217 216 211 220 208 245 257 268 286 309 321 328 333 337 339 340 341 340 344 346 349 350 350 351 350 349 348 342 342 346 341 338 336 335 329 323 328 328 321 316 312 304 298 289 290 287 279 278 281 278 258 263 279 278
26 19 6 106 125 159 227 161 199 246 291 329 230 264 239 151 91 131 227 169 229 259 187 149 242 149 282 302 290 280 48 151 180 189 200 222 191 218 208 233 215 221 205 205 211 214 223 223 236 259 264 268 300 317 322 331 336 340 340 341 343 346 347 351 350 350 351 351 350 347 342 338 341 339 340 339 336 333 328 327 320 313 307 309 311 298 290 286 285 276 273 275 269 258 258 268 276
111 113 79 81 156 96 165 109 211 159 304 258 185 241 141 130 192 206 217 217 10 151 285 219 130 85 273 207 256 312 191 231 205 187 210 189 209 232 270 285 285 278 245 210 193 225 232 231 238 254 249 254 303 310 318 327 332 336 338 341 344 346 347 350 350 350 351 351 349 347 343 337 338 334 335 336 336 337 333 328 325 320 309 307 302 299 287 281 280 270 266 266 266 259 260 264 268
102 176 118 91 54 117 133 172 59 152 264 244 228 208 154 141 245 201 139 193 224 168 240 191 129 143 252 358 306 252 235 240 213 218 189 209 269 314 284 307 298 286 246 210 209 219 228 233 241 249 253 276 272 307 316 321 325 327 332 336 343 345 347 349 350 349 348 349 346 347 345 343 336 333 331 327 328 333 334 332 334 327 326 320 309 304 291 280 275 273 270 264 265 264 260 259 264
121 143 83 114 93 76 215 118 196 160 249 186 235 154 179 247 134 174 173 183 268 211 299 149 176 102 253 159 283 228 216 219 209 224 196 72 346 335 320 320 316 297 247 225 230 218 233 232 247 245 251 249 266 293 301 314 316 316 321 328 336 340 345 348 347 345 344 342 339 340 343 346 339 333 328 326 323 325 332 330 328 331 332 337 320 307 286 282 273 269 264 268 261 258 262 257 258
152 82 80 114 182 133 235 155 93 112 257 174 225 131 123 294 220 159 251 161 250 308 111 233 118 204 212 161 227 218 214 195 209 194 105 19 346 323 338 350 342 321 267 242 244 234 235 218 239 243 249 250 250 279 296 316 310 308 316 325 331 334 339 344 343 341 337 336 336 335 337 337 330 327 328 323 312 319 320 321 323 334 334 329 325 319 295 281 272 263 263 255 250 254 255 256 255
46 81 61 32 166 145 226 153 147 208 235 235 259 163 175 241 259 230 100 77 207 253 238 225 195 187 209 206 221 217 197 174 130 108 110 124 8 330 337 330 341 319 325 270 226 237 235 217 237 240 249 246 263 280 306 314 301 309 322 326 328 329 334 342 341 338 335 337 334 330 330 326 326 327 322 312 311 311 314 317 327 337 334 331 322 313 287 276 267 269 265 253 248 246 246 250 247
56 62 115 44 185 140 209 169 188 183 137 216 184 204 144 237 288 254 28 302 265 279 263 277 294 259 219 254 309 192 153 152 159 144 178 208 1 295 320 289 339 283 283 286 284 258 230 233 240 230 238 273 279 294 310 310 308 315 321 323 317 319 332 339 340 334 337 335 331 331 321 325 327 325 321 314 308 306 312 314 329 345 335 337 340 325 312 289 273 271 259 256 247 240 242 252 326
86 124 87 208 184 221 135 213 195 133 233 176 193 180 154 225 157 258 150 288 313 286 264 253 263 280 293 287 319 157 144 168 159 170 177 211 235 242 252 276 299 303 293 269 280 263 228 233 241 223 227 266 286 308 314 313 311 317 319 320 318 324 333 338 332 336 333 331 331 327 322 324 326 326 320 321 315 312 311 312 323 350 341 340 352 350 312 299 295 272 263 252 249 245 274 354 337
60 113 167 248 207 191 210 193 219 215 153 165 154 229 173 235 155 81 205 248 323 242 247 304 239 259 262 260 176 204 163 188 183 179 194 217 239 230 251 273 281 274 263 239 249 277 224 220 220 213 207 236 237 301 314 313 307 320 313 314 317 318 336 333 330 333 330 332 331 324 325 327 327 325 327 328 324 317 312 318 327 352 349 343 356 356 339 284 266 282 266 252 241 253 24 319 331
291 69 164 223 194 109 230 191 263 264 157 153 164 192 170 257 229 152 210 325 269 253 225 203 215 230 248 257 216 195 194 195 210 209 215 249 264 257 236 237 232 253 242 296 311 280 286 232 226 253 248 243 230 277 302 305 308 327 316 312 317 327 339 333 330 331 328 334 327 326 328 327 323 327 328 326 331 323 320 321 329 337 349 346 353 356 344 299 265 246 290 296 334 35 329 293 301
80 100 223 216 118 66 229 251 357 124 60 112 135 141 218 344 60 229 153 208 251 216 241 207 221 240 214 244 220 173 188 204 221 243 242 240 251 269 281 276 271 254 287 290 263 277 284 254 213 229 231 254 241 237 255 284 334 325 319 314 324 331 340 334 332 332 334 333 323 332 336 337 335 330 333 332 334 335 320 324 327 333 348 354 355 344 342 336 233 230 227 264 282 294 250 265 257
57 306 344 121 191 122 240 11 351 125 102 129 142 217 34 126 279 239 192 219 236 227 217 180 205 202 206 147 128 174 197 222 245 248 243 260 268 259 259 251 241 250 244 241 269 279 292 264 234 240 228 272 269 255 288 317 307 299 291 296 325 319 332 341 336 331 330 327 335 342 355 344 338 331 332 334 337 339 323 324 332 338 337 0 358 353 347 350 348 217 209 211 238 266 264 265 277
103 182 16 19 126 159 173 91 56 88 112 180 203 41 226 282 293 53 238 243 240 250 231 213 228 245 137 131 163 181 200 211 235 236 229 229 228 235 223 226 230 236 258 262 284 286 288 267 246 228 250 247 263 286 290 316 306 319 304 316 321 304 332 334 320 322 322 330 335 343 338 335 337 338 331 336 340 334 337 327 334 340 342 338 14 9 358 1 356 12 149 212 185 201 239 266 272
91 79 226 239 58 165 286 98 47 87 82 212 69 186 254 182 222 352 262 248 244 243 234 253 297 143 157 155 186 202 215 247 258 258 273 248 235 253 270 254 260 234 257 266 267 310 267 248 240 237 248 255 255 244 274 290 300 309 309 315 308 311 326 313 300 319 335 326 330 346 346 346 350 344 335 332 326 343 343 336 336 343 350 340 351 44 15 3 5 9 16 29 75 133 168 208 237
122 172 127 63 72 296 348 4 328 276 207 118 17 268 282 252 264 252 253 269 242 237 223 227 176 178 193 208 211 203 222 236 250 278 252 260 254 239 263 241 252 247 231 246 272 255 260 254 207 227 233 231 239 196 255 308 293 317 298 292 284 316 309 307 320 335 326 330 327 347 343 340 345 342 332 325 335 342 347 346 339 345 350 352 341 40 37 11 14 14 15 21 9 15 4 12 353
112 106 117 126 186 80 307 152 276 267 256 195 208 293 281 329 44 287 289 255 298 193 225 208 168 199 215 219 235 232 216 238 232 240 299 273 256 209 244 262 247 239 247 262 250 245 239 191 230 239 244 230 188 226 261 267 289 284 280 277 295 296 302 314 324 327 329 324 317 331 345 339 342 345 343 332 330 341 350 357 351 336 351 0 353 340 51 62 30 27 17 16 19 7 11 2 347
84 124 82 41 346 297 279 311 287 4 285 180 186 261 274 298 54 238 249 311 76 145 213 203 185 211 222 237 238 243 229 246 252 219 237 232 227 213 233 221 235 241 225 245 234 229 215 211 221 239 229 210 182 235 250 274 274 271 274 284 283 284 296 307 314 325 320 309 311 330 343 345 346 344 345 342 338 337 345 353 3 356 348 356 355 354 349 26 94 70 42 13 13 22 26 18 11
158 113 70 326 9 16 287 197 258 113 281 168 179 298 301 135 221 243 258 290 5 160 183 192 199 219 238 249 255 260 236 248 248 222 229 220 213 200 216 222 212 218 230 221 225 204 211 219 217 241 200 192 198 232 234 245 255 261 263 262 270 282 291 298 307 311 307 293 301 322 333 343 2 348 340 344 338 331 331 346 6 14 353 351 358 352 349 349 0 75 56 43 34 25 24 19 17
122 15 132 21 3 5 323 278 308 26 261 111 282 347 266 244 238 257 260 354 85 126 242 241 243 259 257 256 251 256 260 251 241 225 225 224 218 211 213 235 205 199 216 218 202 222 227 221 212 226 197 211 221 223 227 236 244 240 242 249 255 268 265 263 274 290 299 294 289 314 323 340 7 348 349 344 345 338 335 339 351 10 8 355 355 357 2 356 4 7 70 68 38 40 28 17 14
113 229 64 106 28 265 324 57 296 2 212 64 92 252 289 270 275 260 269 167 156 218 248 256 260 267 266 260 258 257 268 238 233 230 233 232 227 218 214 236 205 220 215 178 188 220 213 226 208 215 215 225 239 246 242 243 241 241 247 254 254 246 258 245 256 270 286 290 287 303 310 327 355 0 351 354 343 345 340 337 346 344 346 18 12 9 6 7 10 15 4 45 86 56 58 32 27
25 62 287 322 83 280 290 333 48 175 319 30 87 227 237 263 270 312 328 141 155 222 251 261 272 267 263 264 260 261 258 266 267 276 259 248 230 226 213 226 206 201 199 204 215 211 223 235 221 215 230 228 231 233 238 236 242 240 244 255 262 261 265 263 261 252 258 281 285 294 286 306 341 347 359 12 352 347 344 334 331 329 340 351 38 29 14 16 6 13 13 14 10 71 83 63 45
351 83 269 305 20 264 349 319 69 87 277 319 178 251 323 309 302 323 20 123 157 233 263 268 268 267 270 264 259 261 281 286 293 261 257 247 238 222 220 217 200 202 206 212 216 224 239 250 229 218 232 231 239 244 240 242 240 245 244 251 257 275 273 269 270 267 272 267 275 296 267 281 307 322 347 33 19 347 346 342 330 335 337 347 1 25 52 26 16 12 15 13 25 352 41 106 80
326 23 183 213 196 322 296 304 121 9 109 271 307 216 238 246 291 309 319 151 220 241 256 261 261 267 266 272 275 270 262 275 278 266 271 252 235 221 223 214 205 209 216 206 206 191 215 228 225 224 245 241 237 246 245 250 254 261 269 263 266 266 263 260 274 297 279 268 275 269 274 261 291 310 325 16 46 351 342 339 332 342 343 351 358 12 26 33 51 37 24 21 14 24 4 13 81
204 341 1 321 326 212 241 43 291 7 353 218 288 255 269 268 279 281 269 255 204 241 241 248 258 273 281 287 287 275 269 269 256 252 251 265 244 225 212 221 222 221 217 221 224 239 265 270 273 272 267 268 266 271 288 299 312 308 297 314 312 283 277 269 261 279 260 282 269 258 264 280 265 278 317 330 20 30 3 352 348 345 350 351 3 10 18 20 24 46 63 15 25 39 35 34 22
155 159 172 177 308 284 241 254 281 63 306 286 223 238 281 293 288 280 284 241 211 238 262 275 266 271 278 277 282 278 265 265 252 262 273 259 222 190 203 212 218 220 246 250 245 269 262 283 276 286 272 263 289 305 324 309 326 315 303 324 326 313 305 299 284 234 269 267 261 257 255 264 265 253 262 309 335 338 41 4 343 345 359 4 6 9 360 11 34 27 23 97 39 6 15 28 43
100 94 115 217 225 283 276 264 278 301 292 253 239 266 278 285 287 292 291 260 216 251 257 255 257 264 270 273 262 268 267 234 263 260 272 277 225 215 222 203 219 248 254 245 257 269 256 241 264 264 256 270 256 270 282 254 267 295 325 288 255 269 274 282 277 280 263 246 253 252 255 257 257 271 246 177 329 319 326 339 33 354 0 8 9 355 336 332 353 37 59 68 74 64 29 5 4
155 116 155 277 195 269 223 148 353 326 52 287 7 320 286 279 294 299 314 143 232 223 240 254 253 240 251 248 264 248 239 298 298 255 277 312 291 275 282 241 187 203 259 241 237 239 244 259 241 252 271 265 242 222 231 218 207 197 218 252 256 270 285 293 300 284 252 264 253 247 248 254 258 252 256 231 198 250 310 329 356 50 18 1 346 337 3 11 1 17 12 34 19 81 77 234 217
57 176 202 309 268 258 294 306 353 333 27 265 352 342 298 302 303 311 312 188 246 221 203 217 207 244 248 249 252 266 305 256 281 271 275 275 271 272 273 272 262 233 268 253 262 283 270 259 246 249 258 255 252 234 211 234 239 249 200 248 204 278 248 261 264 273 287 281 271 254 253 254 255 266 248 227 235 232 232 264 297 293 99 52 22 358 2 6 10 24 25 26 334 12 30 280 72
85 55 96 233 274 26 322 311 355 332 117 269 338 325 294 309 302 305 326 194 290 304 231 228 193 211 230 238 226 232 241 242 233 227 264 309 292 272 288 277 251 275 275 274 260 251 264 263 257 253 256 249 254 245 226 240 241 256 276 258 286 218 267 311 295 288 293 304 286 267 257 245 246 248 255 248 238 227 224 236 257 282 302 124 110 27 350 344 5 9 40 28 44 359 359 317 37
3 117 133 189 341 310 194 273 327 298 308 168 307 329 313 337 357 336 312 327 315 333 345 278 275 252 265 290 311 219 217 205 226 267 286 296 269 234 227 239 285 267 256 249 251 242 235 241 245 239 248 246 246 253 241 243 264 291 315 321 356 335 335 344 344 312 302 291 300 298 264 234 236 239 245 251 248 253 230 224 221 245 258 265 209 134 310 288 283 215 148 81 72 76 336 332 314
322 231 174 156 161 241 318 328 0 17 307 12 24 40 306 312 303 263 289 348 351 329 352 266 281 313 329 301 279 298 275 225 201 215 225 244 250 279 283 270 263 259 258 248 232 241 236 254 256 257 258 259 252 253 245 226 225 227 267 291 299 311 301 307 292 266 300 306 275 282 309 264 246 249 250 247 247 254 264 241 218 215 248 262 221 217 215 278 298 327 301 128 153 179 171 166 311
111 246 165 138 137 135 28 353 25 8 88 332 19 122 268 330 359 312 311 336 310 316 323 286 302 295 300 260 271 270 264 274 259 260 266 265 252 252 273 271 248 250 254 250 265 252 251 257 257 251 244 252 256 258 253 208 250 244 229 236 240 255 263 278 247 261 255 273 300 298 287 305 263 248 262 246 252 251 253 263 257 244 237 225 240 219 253 226 215 209 201 49 280 4 78 283 236
260 100 135 100 80 63 26 90 73 239 292 297 43 70 142 315 294 268 297 324 326 330 322 310 295 292 279 271 254 256 257 240 236 242 246 245 249 221 235 244 248 231 252 299 272 267 248 247 243 246 253 262 265 278 273 222 230 243 249 254 249 251 237 256 271 279 270 278 299 284 293 290 298 266 271 267 251 253 250 261 256 266 270 267 228 231 236 250 258 277 206 189 168 187 183 222 273
230 195 147 83 135 166 115 68 25 242 332 289 319 343 90 265 266 307 356 103 354 347 325 336 321 299 273 269 261 259 249 242 222 232 235 232 231 239 235 256 262 276 269 263 261 266 272 271 272 287 281 273 290 302 281 267 234 231 231 245 268 255 249 260 283 286 287 294 296 288 289 283 290 284 258 264 263 250 251 251 259 263 262 266 262 271 267 258 244 252 254 229 198 201 189 193 170
274 172 84 69 76 75 82 73 29 343 55 220 305 345 149 291 274 347 334 103 291 219 53 350 314 305 294 285 281 263 262 264 240 235 262 288 276 274 268 279 295 282 304 298 294 302 298 301 290 300 285 296 302 306 290 280 251 247 246 249 254 276 274 282 296 291 293 305 295 289 288 291 287 294 280 261 268 256 253 254 256 253 255 262 266 256 265 271 269 266 266 263 247 238 223 193 203
174 67 63 4 38 57 33 69 82 44 50 267 258 318 98 295 265 204 125 206 191 205 296 289 300 323 312 280 265 271 281 284 295 304 282 266 265 273 320 311 292 313 319 328 319 322 308 314 322 318 289 316 317 303 304 279 274 235 244 248 250 267 278 290 305 299 300 309 295 291 291 287 292 283 290 286 263 264 256 246 246 250 253 260 266 267 258 254 257 249 252 247 261 262 272 247 257
111 39 98 53 9 12 47 349 33 93 269 258 306 296 326 159 296 280 240 290 186 157 182 188 207 227 244 304 327 313 302 318 321 322 322 335 346 343 358 345 339 324 340 351 345 343 347 333 359 346 313 319 323 321 317 291 284 266 249 255 259 258 271 281 282 286 294 296 293 292 295 303 292 289 287 284 282 267 254 255 242 252 256 251 253 247 260 255 261 265 270 263 262 250 249 260 257
59 59 36 98 274 35 267 13 292 204 182 230 351 346 22 239 220 221 259 243 223 221 168 182 189 207 240 273 296 321 311 323 339 340 335 344 347 317 332 330 343 350 339 332 337 337 343 353 18 8 318 330 328 328 328 315 311 284 264 261 261 270 272 265 269 276 281 284 289 292 298 296 298 306 287 281 274 267 258 260 254 243 248 241 245 245 249 252 255 256 260 268 266 266 258 257 266
71 134 128 71 29 38 261 276 250 308 306 267 11 309 249 250 288 229 228 238 209 209 222 187 168 184 199 213 292 310 326 311 311 321 330 325 324 317 312 318 330 331 339 340 339 359 351 6 9 23 321 325 326 339 340 337 323 302 279 260 264 267 272 268 266 266 279 275 272 275 278 278 287 278 288 279 272 276 258 245 250 250 244 248 241 240 245 245 237 239 247 251 252 253 260 253 254
257 169 117 188 136 161 230 229 264 216 215 272 288 55 233 96 193 282 225 249 285 253 246 249 244 214 210 260 282 296 317 40 2 31 18 356 346 343 343 345 348 349 352 355 355 359 9 11 9 5 353 346 353 341 342 343 333 329 321 294 281 277 272 280 276 267 276 283 281 276 277 278 271 279 277 280 291 277 267 262 250 251 251 245 243 245 245 241 235 240 240 243 251 248 248 245 251
231 179 99 65 339 142 134 208 158 250 335 346 232 209 196 103 299 295 306 284 234 3 346 26 117 13 19 72 21 331 316 100 29 46 24 13 350 348 6 9 4 8 6 10 16 9 17 5 0 3 353 332 342 348 348 346 337 334 337 339 328 313 300 295 295 289 280 271 281 279 283 284 276 280 283 285 285 278 275 273 268 257 258 255 247 244 246 243 238 233 245 242 250 236 242 240 244
222 92 262 189 144 96 99 56 16 86 51 254 193 311 313 296 341 341 346 43 269 340 315 30 244 336 65 78 301 260 244 331 344 79 37 1 6 6 356 359 14 18 21 14 0 3 1 0 9 5 358 356 2 357 353 350 347 356 350 350 348 345 339 331 320 315 311 306 289 282 283 285 291 286 284 285 288 285 275 271 277 275 270 262 263 256 251 250 246 241 246 247 250 245 234 243 243
53 50 224 172 163 131 131 223 337 58 117 263 30 269 305 20 245 322 76 144 243 268 256 294 283 83 94 135 198 205 211 248 285 287 286 280 274 315 349 2 17 10 5 6 2 352 358 9 22 9 7 8 358 2 1 2 3 3 357 357 354 352 347 339 334 329 327 329 322 315 306 307 301 296 293 292 294 294 290 281 274 279 277 276 264 266 257 254 246 247 247 252 252 256 248 255 248
174 189 303 127 325 41 332 93 4 345 321 289 316 280 246 182 243 220 229 194 215 230 239 144 112 128 178 194 224 250 273 287 285 44 11 3 357 351 348 346 334 358 359 2 349 3 14 18 17 34 17 6 0 2 3 8 19 13 8 359 358 354 357 352 348 344 344 344 339 335 331 318 313 313 311 310 308 303 299 296 285 282 285 280 275 265 260 258 239 251 250 255 258 243 250 256 253
54 10 352 328 131 179 95 210 173 114 270 38 290 28 256 213 219 192 217 202 193 184 193 168 187 196 203 218 229 237 239 238 233 345 343 312 311 314 333 346 358 351 350 353 3 16 27 16 29 22 23 23 22 20 16 17 9 15 8 10 9 7 4 4 358 0 359 359 348 344 341 341 336 325 322 319 314 308 307 306 303 297 295 290 285 279 268 265 260 252 259 261 261 240 249 254 260
320 49 327 346 40 218 101 11 107 191 178 181 218 335 283 266 213 163 215 205 198 175 171 188 202 215 225 216 210 221 235 239 242 232 255 304 319 344 355 352 355 8 26 32 36 41 35 34 33 31 39 29 28 21 21 17 12 13 14 14 8 7 5 5 5 9 9 3 358 355 353 342 337 345 340 336 334 327 319 315 312 309 303 301 299 297 288 276 272 269 264 257 267 256 253 262 258
179 158 200 174 119 126 109 274 16 68 78 235 124 257 268 271 181 200 228 235 189 207 165 185 203 220 223 235 239 218 216 244 234 229 236 258 320 2 10 29 35 43 33 40 37 45 38 38 36 32 36 33 26 21 20 12 15 17 21 15 13 12 12 12 14 15 13 9 6 1 355 353 358 348 350 343 343 338 335 331 328 321 317 310 306 300 301 295 285 281 277 265 264 261 257 261 262